Weather History for Beaufort, SC

Change the Weather History Date:

Thursday, May 22, 2014

  Actual Average (KNBC) Record (KNBC)
Temperature  
Mean Temperature 82 °F -  
Max Temperature 93 °F 83 °F 99 °F (1938)
Min Temperature 71 °F 65 °F 49 °F (1968)
Cooling Degree Days 17    
Growing Degree Days 32 (Base 50)    
Moisture  
Dew Point 65 °F    
Average Humidity 59    
Maximum Humidity 88    
Minimum Humidity 34    
Precipitation  
Precipitation 0.00 in - - ()
Sea Level Pressure  
Sea Level Pressure 30.01 in    
Wind  
Wind Speed 9 mph (West)    
Max Wind Speed 16 mph    
Max Gust Speed 24 mph    
Visibility 7 miles    
Events      
Averages and records for this station are not official NWS values.
T = Trace of Precipitation, MM = Missing Value Source: NWS Daily Summary

Daily Weather History Graph

Daily Weather History Graph

Search for Another Location

Airport:

Trip Planner

Search our weather history database for the weather conditions in past years. The results will help you decide how hot, cold, wet, or windy it might be!

Date:

Astronomy

May. 22, 2014 Rise Set
Actual Time 6:20 AM EDT 8:18 PM EDT
Civil Twilight 5:52 AM EDT 8:46 PM EDT
Nautical Twilight 5:19 AM EDT 9:19 PM EDT
Astronomical Twilight 4:43 AM EDT 9:55 PM EDT
Moon 2:16 AM EDT (5/22) 2:25 PM EDT (5/22)
Length of Visible Light 14h 53m
Length of Day
13h 58m
Last Quarter, 37% of the Moon is Illuminated
May 22
Last Quarter
May 28
New
Jun 5
First Quarter
Jun 13
Full
Jun 19
Last Quarter

Hourly Weather History & Observations

Time (EDT) Temp. Heat Index Dew Point Humidity Pressure Visibility Wind Dir Wind Speed Gust Speed Precip Events Conditions
12:15 AM 73.4 °F - 68.0 °F 83% 30.06 in 7.0 mi SSW 6.9 mph - N/A   Clear
12:35 AM 73.4 °F - 68.0 °F 83% 30.06 in 7.0 mi SW 5.8 mph - N/A   Clear
12:55 AM 71.6 °F - 68.0 °F 88% 30.06 in 7.0 mi SW 8.1 mph - N/A   Clear
1:15 AM 71.6 °F - 68.0 °F 88% 30.05 in 7.0 mi SW 6.9 mph - N/A   Clear
1:35 AM 71.6 °F - 68.0 °F 88% 30.05 in 7.0 mi SW 6.9 mph - N/A   Clear
2:15 AM 71.6 °F - 68.0 °F 88% 30.04 in 7.0 mi SW 6.9 mph - N/A   Clear
2:55 AM 71.6 °F - 66.2 °F 83% 30.04 in 7.0 mi SW 5.8 mph - N/A   Clear
3:15 AM 71.6 °F - 68.0 °F 88% 30.05 in 7.0 mi SW 5.8 mph - N/A   Clear
3:35 AM 71.6 °F - 66.2 °F 83% 30.04 in 7.0 mi WSW 6.9 mph - N/A   Clear
3:55 AM 73.4 °F - 64.4 °F 73% 30.05 in 7.0 mi West 9.2 mph - N/A   Clear
4:15 AM 71.6 °F - 64.4 °F 78% 30.04 in 7.0 mi WSW 6.9 mph - N/A   Clear
4:35 AM 71.6 °F - 64.4 °F 78% 30.03 in 7.0 mi SW 5.8 mph - N/A   Clear
4:55 AM 71.6 °F - 64.4 °F 78% 30.01 in 7.0 mi SW 6.9 mph - N/A   Clear
5:15 AM 71.6 °F - 64.4 °F 78% 30.02 in 7.0 mi SW 8.1 mph - N/A   Clear
5:35 AM 71.6 °F - 64.4 °F 78% 30.02 in 7.0 mi SW 6.9 mph - N/A   Clear
5:55 AM 71.6 °F - 64.4 °F 78% 30.02 in 7.0 mi SW 5.8 mph - N/A   Clear
6:15 AM 71.6 °F - 64.4 °F 78% 30.03 in 7.0 mi WSW 9.2 mph - N/A   Clear
6:35 AM 71.6 °F - 64.4 °F 78% 30.03 in 7.0 mi WSW 10.4 mph 16.1 mph N/A   Clear
6:55 AM 71.6 °F - 64.4 °F 78% 30.03 in 5.0 mi WSW 9.2 mph - N/A   Haze
7:15 AM 71.6 °F - 64.4 °F 78% 30.04 in 7.0 mi WSW 10.4 mph - N/A   Clear
7:35 AM 73.4 °F - 64.4 °F 73% 30.04 in 7.0 mi West 13.8 mph - N/A   Clear
7:55 AM 73.4 °F - 64.4 °F 73% 30.04 in 7.0 mi West 11.5 mph - N/A   Clear
8:15 AM 75.2 °F - 64.4 °F 69% 30.03 in 7.0 mi West 15.0 mph - N/A   Clear
8:35 AM 77.0 °F - 64.4 °F 65% 30.04 in 7.0 mi West 12.7 mph - N/A   Clear
8:55 AM 78.8 °F - 64.4 °F 61% 30.04 in 7.0 mi West 12.7 mph - N/A   Clear
9:15 AM 78.8 °F - 64.4 °F 61% 30.05 in 7.0 mi West 13.8 mph - N/A   Clear
9:35 AM 80.6 °F 82.3 °F 64.4 °F 58% 30.05 in 7.0 mi WNW 13.8 mph 23.0 mph N/A   Clear
9:55 AM 80.6 °F 82.3 °F 64.4 °F 58% 30.05 in 5.0 mi WNW 16.1 mph 21.9 mph N/A   Haze
10:15 AM 80.6 °F 82.3 °F 64.4 °F 58% 30.05 in 5.0 mi WNW 11.5 mph 21.9 mph N/A   Haze
10:35 AM 82.4 °F 84.6 °F 66.2 °F 58% 30.05 in 7.0 mi West 12.7 mph 21.9 mph N/A   Clear
10:55 AM 82.4 °F 84.6 °F 66.2 °F 58% 30.05 in 7.0 mi WNW 15.0 mph 24.2 mph N/A   Clear
11:15 AM 86.0 °F 88.2 °F 66.2 °F 51% 30.04 in 7.0 mi WNW 16.1 mph 21.9 mph N/A   Clear
11:35 AM 86.0 °F 88.2 °F 66.2 °F 51% 30.04 in 7.0 mi WNW 13.8 mph 21.9 mph N/A   Clear
11:55 AM 87.8 °F 90.4 °F 66.2 °F 49% 30.03 in 7.0 mi NW 13.8 mph 19.6 mph N/A   Clear
12:15 PM 87.8 °F 90.4 °F 66.2 °F 49% 30.03 in 5.0 mi WNW 13.8 mph 24.2 mph N/A   Haze
12:35 PM 87.8 °F 89.4 °F 64.4 °F 46% 30.02 in 7.0 mi West 15.0 mph - N/A   Clear
12:55 PM 89.6 °F 91.1 °F 64.4 °F 43% 30.01 in 7.0 mi WNW 12.7 mph 19.6 mph N/A   Clear
1:15 PM 89.6 °F 92.2 °F 66.2 °F 46% 30.00 in 7.0 mi West 11.5 mph - N/A   Clear
1:35 PM 89.6 °F 91.1 °F 64.4 °F 43% 29.99 in 7.0 mi West 11.5 mph - N/A   Clear
1:55 PM 91.4 °F 93.2 °F 64.4 °F 41% 29.98 in 7.0 mi West 11.5 mph - N/A   Clear
2:15 PM 89.6 °F 91.1 °F 64.4 °F 43% 29.98 in 7.0 mi WSW 12.7 mph 18.4 mph N/A   Clear
2:35 PM 91.4 °F 92.1 °F 62.6 °F 38% 29.98 in 7.0 mi WSW 15.0 mph 19.6 mph N/A   Clear
2:55 PM 91.4 °F 92.1 °F 62.6 °F 38% 29.97 in 7.0 mi West 15.0 mph 21.9 mph N/A   Clear
3:15 PM 91.4 °F 92.1 °F 62.6 °F 38% 29.96 in 7.0 mi WSW 15.0 mph 21.9 mph N/A   Clear
3:35 PM 93.2 °F 94.1 °F 62.6 °F 36% 29.96 in 7.0 mi West 15.0 mph 23.0 mph N/A   Clear
3:55 PM 93.2 °F 94.1 °F 62.6 °F 36% 29.96 in 7.0 mi West 13.8 mph 23.0 mph N/A   Clear
4:15 PM 93.2 °F 94.9 °F 64.4 °F 38% 29.95 in 7.0 mi West 12.7 mph 19.6 mph N/A   Clear
4:35 PM 93.2 °F 94.1 °F 62.6 °F 36% 29.94 in 7.0 mi West 12.7 mph 23.0 mph N/A   Clear
5:15 PM 93.2 °F 93.3 °F 60.8 °F 34% 29.94 in 7.0 mi West 15.0 mph - N/A   Clear
5:35 PM 93.2 °F 94.1 °F 62.6 °F 36% 29.94 in 7.0 mi West 16.1 mph 21.9 mph N/A   Clear
5:55 PM 91.4 °F 92.1 °F 62.6 °F 38% 29.93 in 7.0 mi West 15.0 mph 19.6 mph N/A   Clear
6:15 PM 91.4 °F 92.1 °F 62.6 °F 38% 29.93 in 5.0 mi WNW 9.2 mph - N/A   Haze
6:35 PM 91.4 °F 92.1 °F 62.6 °F 38% 29.94 in 7.0 mi West 11.5 mph 17.3 mph N/A   Clear
6:55 PM 91.4 °F 92.1 °F 62.6 °F 38% 29.94 in 7.0 mi West 11.5 mph - N/A   Clear
7:15 PM 89.6 °F 90.1 °F 62.6 °F 40% 29.94 in 7.0 mi West 9.2 mph - N/A   Clear
7:35 PM 89.6 °F 90.1 °F 62.6 °F 40% 29.95 in 4.0 mi West 8.1 mph - N/A   Haze
7:55 PM 87.8 °F 88.5 °F 62.6 °F 43% 29.95 in 7.0 mi West 5.8 mph - N/A   Clear
8:15 PM 86.0 °F 86.6 °F 62.6 °F 45% 29.95 in 7.0 mi West 8.1 mph - N/A   Clear
8:35 PM 82.4 °F 83.9 °F 64.4 °F 54% 29.96 in 10.0 mi West 4.6 mph - N/A   Clear
8:55 PM 82.4 °F 83.9 °F 64.4 °F 54% 29.96 in 10.0 mi West 5.8 mph - N/A   Clear
9:15 PM 80.6 °F 82.3 °F 64.4 °F 58% 29.97 in 7.0 mi West 5.8 mph - N/A   Clear
9:35 PM 80.6 °F 82.3 °F 64.4 °F 58% 29.98 in 10.0 mi West 5.8 mph - N/A   Clear
9:55 PM 80.6 °F 82.3 °F 64.4 °F 58% 29.99 in 7.0 mi West 5.8 mph - N/A   Clear
10:15 PM 78.8 °F - 64.4 °F 61% 30.00 in 5.0 mi West 4.6 mph - N/A   Haze
10:35 PM 77.0 °F - 64.4 °F 65% 30.00 in 10.0 mi WSW 5.8 mph - N/A   Clear
10:55 PM 77.0 °F - 64.4 °F 65% 30.00 in 7.0 mi WSW 5.8 mph - N/A   Clear
11:15 PM 77.0 °F - 64.4 °F 65% 30.00 in 7.0 mi WSW 4.6 mph - N/A   Clear
11:35 PM 77.0 °F - 64.4 °F 65% 30.00 in 10.0 mi WSW 4.6 mph - N/A   Clear
11:55 PM 78.8 °F - 64.4 °F 61% 30.00 in 7.0 mi West 4.6 mph - N/A   Clear